This is the latest recevied weather packets stored in our database for station/object IW8RUI-5. If no packets are shown the sender has not sent any weather packets the latest 10 day(s).
| Time | Temp. | Humidity | Pressure | Rain* | Wind** | Luminosity | Snow |
|---|---|---|---|---|---|---|---|
| 1777827865 | 12.78° C | 15% | 1012 hPa | 0 mm | - | - | - |
| 1777827565 | 12.78° C | 15% | 1012 hPa | 0 mm | - | - | - |
| 1777827265 | 12.78° C | 15% | 1012 hPa | 0 mm | - | - | - |
| 1777826965 | 12.78° C | 15% | 1012 hPa | 0 mm | - | - | - |
| 1777826665 | 12.78° C | 15% | 1013 hPa | 0 mm | - | - | - |
| 1777826365 | 13.89° C | 14% | 1013 hPa | 0 mm | - | - | - |
| 1777826065 | 14.44° C | 17% | 1013 hPa | 0 mm | - | - | - |
| 1777825765 | 14.44° C | 17% | 1012 hPa | 0 mm | - | - | - |
| 1777825465 | 15° C | 17% | 1012 hPa | 0 mm | - | - | - |
| 1777824865 | 14.44° C | 17% | 1013 hPa | 0 mm | - | - | - |
| 1777824565 | 14.44° C | 17% | 1013 hPa | 0 mm | - | - | - |
| 1777824265 | 14.44° C | 17% | 1013 hPa | 0 mm | - | - | - |
| 1777823965 | 14.44° C | 17% | 1013 hPa | 0 mm | - | - | - |
| 1777823665 | 14.44° C | 14% | 1013 hPa | 0 mm | - | - | - |
| 1777823365 | 13.89° C | 17% | 1013 hPa | 0 mm | - | - | - |
| 1777823065 | 13.89° C | 17% | 1013 hPa | 0 mm | - | - | - |
| 1777822766 | 13.89° C | 14% | 1013 hPa | 0 mm | - | - | - |
| 1777822465 | 13.89° C | 14% | 1013 hPa | 0 mm | - | - | - |
| 1777822165 | 13.89° C | 14% | 1013 hPa | 0 mm | - | - | - |
| 1777821865 | 13.33° C | 14% | 1013 hPa | 0 mm | - | - | - |
| 1777821565 | 13.33° C | 14% | 1013 hPa | 0 mm | - | - | - |
| 1777821265 | 13.33° C | 12% | 1013 hPa | 0 mm | - | - | - |
| 1777820965 | 12.78° C | 15% | 1013 hPa | 0 mm | - | - | - |
| 1777820665 | 12.78° C | 10% | 1013 hPa | 0 mm | - | - | - |
| 1777820365 | 12.22° C | 10% | 1013 hPa | 0 mm | - | - | - |
* Rain latest hour (hover to see other rain measurements)
** Current wind speed in m/s (hover to see current wind gust speed)